FENGYUN 1C DEB, 30660

Orbit data source: Space-Track

FENGYUN 1C DEB, 30660 is space debris in SSO originally from a launch on Mon, 10 May 1999 UTC launched from the Taiyaun Space Center, China (TSC). Fengyun 1C debris stems from the Chinese weather satellite Fengyun-1C, which was intentionally destroyed by a Chinese anti-satellite missile in 2007. This event dramatically increased the amount of space debris, with thousands of trackable fragments posing hazards to satellites and human spaceflight. The Fengyun 1C debris cloud has become a focal point in discussions about space sustainability and the need for international regulations to prevent the creation of new debris.

Loading next visibility...
Identifier
30660, 1999-025APS
Orbit
SSO
Country
Flag of CNCN / PRC
Related business
Manufacturer
Unknown
Mission
Spacecraft
Bus & Motor
Unknown
Mass
Unknown
Launch date (UTC)
1999-05-10 (27 years ago)
Launch vehicle
Unknown
Launch site
Taiyaun Space Center, China (TSC)
Object type
Payload
Rocket body
Debris
Shape & HBR
Unknown shape, 0.1 m
Radar Cross Section
Small (<0.1 m²)

Expand to show TLE details & history
Last TLE update: 19 hours ago

TLE from 19 hours ago
0 FENGYUN 1C DEB
1 30660U 99025APS 26237.78248391  .00006198  00000-0  53878-3 0  9990
2 30660  98.1448 346.7046 0128601 215.1836 297.8514 14.91154640 45960
Epoch: 2026-08-25T18:46Z
TLE epoch observation values (Epoch: 2026-08-25T18:46:46.609Z)
Latitude
28.01228°
Longitude
-84.69192°
Altitude
556.877 km
Speed
7.608 km/s
True Right ascension
11h 24m 11s
True Declination
27° 51' 57"
Sunlit
Object was in daylight at epoch
Visualization orbit readout
Latitude
Unknown
Longitude
Unknown
Altitude
Unknown
Speed
Unknown
Apparent Right ascension
Unknown
Apparent Declination
Unknown
Sunlit
N/A
Visualization observer readout
Local Sidereal Time
04:54:34
Azimuth
Unknown
Elevation
Unknown
Doppler factor
Unknown
Orbital elements
Apogee altitude
680.999 km
Perigee altitude
501.742 km
Semi-major axis
6,969.507 km
Eccentricity
0.01286
Inclination
98.1448°
RAAN
346.7046°
Arg. of periapsis
215.1836°
True anomaly
296.53871°
Mean anomaly
297.8514°
Eccentric anomaly
297.19603°
Mean motion
3.73027 °/min
Orbital period
96.51 mins
BSTAR
0.00053878
Loading maneuver chart data...
Computing Atmospheric mass density...

Documentation

Showing up to 5 results
|